When you browse on this site, cookies collect data to enhance your experience and personalize the content and advertising you see.
Visit our Privacy Policy to learn more. By continuing to use the site, you agree to this use of cookies and data.
EN

Hourly Weather Daraganov

Today, 20 September, Sunday

Time Temperature Precipitation Wind Pressure Humidity
00:00 +13°C° 0 mm 2 mps 762 mmHg 51%
01:00 +13°C° 0 mm 2 mps 762 mmHg 54%
02:00 +12°C° 0 mm 2 mps 762 mmHg 56%
03:00 +12°C° 0 mm 1 mps 762 mmHg 59%
04:00 +10°C° 0 mm 2 mps 762 mmHg 61%
05:00 +10°C° 0 mm 2 mps 762 mmHg 63%
06:00 +10°C° 0 mm 2 mps 762 mmHg 65%
07:00 +12°C° 0 mm 3 mps 762 mmHg 57%
08:00 +16°C° 0 mm 3 mps 762 mmHg 49%
09:00 +18°C° 0 mm 4 mps 762 mmHg 42%
10:00 +20°C° 0 mm 4 mps 762 mmHg 36%
11:00 +21°C° 0 mm 5 mps 762 mmHg 29%
12:00 +23°C° 0 mm 6 mps 762 mmHg 23%
13:00 +23°C° 0 mm 6 mps 762 mmHg 24%
14:00 +24°C° 0 mm 6 mps 762 mmHg 24%
15:00 +24°C° 0 mm 6 mps 762 mmHg 25%
16:00 +23°C° 0 mm 5 mps 762 mmHg 27%
17:00 +21°C° 0 mm 4 mps 762 mmHg 28%
18:00 +20°C° 0 mm 3 mps 762 mmHg 30%
19:00 +18°C° 0 mm 3 mps 763 mmHg 35%
20:00 +16°C° 0 mm 3 mps 763 mmHg 41%
21:00 +14°C° 0 mm 3 mps 764 mmHg 46%
22:00 +13°C° 0 mm 3 mps 764 mmHg 49%
23:00 +12°C° 0 mm 3 mps 765 mmHg 53%

Tomorrow, 21 September, Monday

Time Temperature Precipitation Wind Pressure Humidity
00:00 +11°C° 0 mm 3 mps 765 mmHg 56%
01:00 +11°C° 0 mm 3 mps 765 mmHg 57%
02:00 +10°C° 0 mm 3 mps 766 mmHg 58%
03:00 +10°C° 0 mm 3 mps 766 mmHg 60%
04:00 +9°C° 0 mm 2 mps 766 mmHg 61%
05:00 +9°C° 0 mm 2 mps 766 mmHg 62%
06:00 +8°C° 0 mm 2 mps 766 mmHg 63%
07:00 +10°C° 0 mm 2 mps 766 mmHg 56%
08:00 +14°C° 0 mm 2 mps 766 mmHg 48%
09:00 +16°C° 0 mm 2 mps 767 mmHg 41%
10:00 +17°C° 0 mm 2 mps 766 mmHg 35%
11:00 +19°C° 0 mm 2 mps 766 mmHg 30%
12:00 +21°C° 0 mm 2 mps 766 mmHg 25%
13:00 +21°C° 0 mm 2 mps 766 mmHg 23%
14:00 +23°C° 0 mm 2 mps 765 mmHg 20%
15:00 +24°C° 0 mm 2 mps 765 mmHg 18%
16:00 +23°C° 0 mm 2 mps 765 mmHg 19%
17:00 +21°C° 0 mm 2 mps 765 mmHg 20%
18:00 +20°C° 0 mm 2 mps 764 mmHg 22%
19:00 +18°C° 0 mm 2 mps 765 mmHg 24%
20:00 +17°C° 0 mm 2 mps 765 mmHg 27%
21:00 +15°C° 0 mm 2 mps 765 mmHg 30%
22:00 +14°C° 0 mm 2 mps 765 mmHg 31%
23:00 +14°C° 0 mm 2 mps 765 mmHg 32%

Day after tomorrow, 22 September, Tuesday

Time Temperature Precipitation Wind Pressure Humidity
00:00 +13°C° 0 mm 2 mps 765 mmHg 33%
01:00 +13°C° 0 mm 2 mps 765 mmHg 34%
02:00 +12°C° 0 mm 2 mps 765 mmHg 35%
03:00 +12°C° 0 mm 2 mps 765 mmHg 35%
04:00 +12°C° 0 mm 2 mps 765 mmHg 36%
05:00 +10°C° 0 mm 2 mps 765 mmHg 38%
06:00 +10°C° 0 mm 2 mps 766 mmHg 39%
07:00 +13°C° 0 mm 2 mps 766 mmHg 34%
08:00 +16°C° 0 mm 2 mps 766 mmHg 29%
09:00 +18°C° 0 mm 2 mps 766 mmHg 24%
10:00 +20°C° 0 mm 2 mps 766 mmHg 22%
11:00 +23°C° 0 mm 2 mps 766 mmHg 19%
12:00 +25°C° 0 mm 3 mps 766 mmHg 16%
13:00 +26°C° 0 mm 2 mps 765 mmHg 15%
14:00 +26°C° 0 mm 2 mps 765 mmHg 14%
15:00 +27°C° 0 mm 2 mps 765 mmHg 13%
16:00 +26°C° 0 mm 2 mps 764 mmHg 14%
17:00 +24°C° 0 mm 2 mps 764 mmHg 16%
18:00 +23°C° 0 mm 2 mps 764 mmHg 17%
19:00 +20°C° 0 mm 2 mps 764 mmHg 19%
20:00 +19°C° 0 mm 2 mps 764 mmHg 22%
21:00 +17°C° 0 mm 2 mps 765 mmHg 24%
22:00 +17°C° 0 mm 2 mps 764 mmHg 25%
23:00 +16°C° 0 mm 2 mps 764 mmHg 27%

23 September, Wednesday

Time Temperature Precipitation Wind Pressure Humidity
00:00 +15°C° 0 mm 2 mps 764 mmHg 28%
01:00 +15°C° 0 mm 2 mps 764 mmHg 29%
02:00 +14°C° 0 mm 2 mps 764 mmHg 30%
03:00 +14°C° 0 mm 2 mps 764 mmHg 31%
04:00 +13°C° 0 mm 2 mps 764 mmHg 32%
05:00 +13°C° 0 mm 2 mps 764 mmHg 33%
06:00 +13°C° 0 mm 2 mps 764 mmHg 34%
07:00 +14°C° 0 mm 3 mps 764 mmHg 30%
08:00 +18°C° 0 mm 3 mps 764 mmHg 26%
09:00 +20°C° 0 mm 3 mps 764 mmHg 21%
10:00 +22°C° 0 mm 3 mps 764 mmHg 19%
11:00 +25°C° 0 mm 4 mps 763 mmHg 17%
12:00 +28°C° 0 mm 4 mps 763 mmHg 15%
13:00 +28°C° 0 mm 4 mps 763 mmHg 14%
14:00 +29°C° 0 mm 4 mps 762 mmHg 13%
15:00 +30°C° 0 mm 4 mps 762 mmHg 12%
16:00 +28°C° 0 mm 3 mps 761 mmHg 13%
17:00 +27°C° 0 mm 3 mps 761 mmHg 15%
18:00 +25°C° 0 mm 3 mps 761 mmHg 16%
19:00 +22°C° 0 mm 3 mps 761 mmHg 18%
20:00 +21°C° 0 mm 3 mps 761 mmHg 21%
21:00 +19°C° 0 mm 3 mps 761 mmHg 23%
22:00 +18°C° 0 mm 4 mps 761 mmHg 24%
23:00 +17°C° 0 mm 4 mps 761 mmHg 26%

24 September, Thursday

Time Temperature Precipitation Wind Pressure Humidity
00:00 +17°C° 0 mm 4 mps 761 mmHg 27%
01:00 +16°C° 0 mm 3 mps 761 mmHg 29%
02:00 +16°C° 0 mm 3 mps 761 mmHg 30%
03:00 +14°C° 0 mm 3 mps 761 mmHg 32%
04:00 +14°C° 0 mm 3 mps 761 mmHg 35%
05:00 +13°C° 0 mm 3 mps 761 mmHg 39%
06:00 +13°C° 0 mm 3 mps 761 mmHg 42%
07:00 +17°C° 0 mm 4 mps 761 mmHg 40%
08:00 +19°C° 0 mm 4 mps 761 mmHg 37%
09:00 +21°C° 0 mm 5 mps 761 mmHg 34%
10:00 +23°C° 0 mm 5 mps 761 mmHg 33%
11:00 +26°C° 0 mm 6 mps 761 mmHg 32%
12:00 +28°C° 0 mm 6 mps 760 mmHg 30%
13:00 +29°C° 0 mm 6 mps 760 mmHg 29%
14:00 +30°C° 0 mm 6 mps 760 mmHg 27%
15:00 +30°C° 0 mm 6 mps 759 mmHg 25%
16:00 +29°C° 0 mm 5 mps 759 mmHg 27%
17:00 +28°C° 0 mm 5 mps 759 mmHg 28%
18:00 +27°C° 0 mm 4 mps 759 mmHg 30%
19:00 +25°C° 0 mm 4 mps 759 mmHg 32%
20:00 +23°C° 0 mm 4 mps 759 mmHg 34%
21:00 +22°C° 0 mm 5 mps 759 mmHg 36%
22:00 +21°C° 0 mm 5 mps 759 mmHg 37%
23:00 +20°C° 0 mm 5 mps 759 mmHg 39%

25 September, Friday

Time Temperature Precipitation Wind Pressure Humidity
00:00 +20°C° 0 mm 5 mps 759 mmHg 40%
01:00 +19°C° 0 mm 5 mps 759 mmHg 41%
02:00 +19°C° 0 mm 5 mps 759 mmHg 42%
03:00 +19°C° 0 mm 4 mps 759 mmHg 44%
04:00 +17°C° 0 mm 5 mps 759 mmHg 45%
05:00 +17°C° 0 mm 5 mps 759 mmHg 46%
06:00 +16°C° 0 mm 5 mps 759 mmHg 47%
07:00 +19°C° 0 mm 6 mps 759 mmHg 43%
08:00 +20°C° 0 mm 7 mps 759 mmHg 39%
09:00 +22°C° 0 mm 7 mps 759 mmHg 36%
10:00 +24°C° 0 mm 8 mps 759 mmHg 32%
11:00 +27°C° 0 mm 8 mps 759 mmHg 27%
12:00 +29°C° 0 mm 9 mps 759 mmHg 23%
13:00 +31°C° 0 mm 8 mps 758 mmHg 22%
14:00 +31°C° 0 mm 8 mps 758 mmHg 21%
15:00 +32°C° 0 mm 8 mps 758 mmHg 19%
16:00 +30°C° 0 mm 7 mps 757 mmHg 21%
17:00 +29°C° 0 mm 6 mps 757 mmHg 22%
18:00 +28°C° 0 mm 5 mps 757 mmHg 24%
19:00 +26°C° 0 mm 5 mps 757 mmHg 26%
20:00 +25°C° 0 mm 5 mps 757 mmHg 28%
21:00 +23°C° 0 mm 5 mps 757 mmHg 30%
22:00 +23°C° 0 mm 5 mps 757 mmHg 31%
23:00 +22°C° 0 mm 6 mps 757 mmHg 31%
Show more